CAPE
0 97 2620 1528 1336 927 710 1045 1108 1180 1284 1298 1251 1140 1036 1003 1051 939 600 451 412 700 404 476 545 736 325 536 573 690 482 274
0 432 940 674 555 529 370 330 479 610 1109 1288 1322 1375 1180 1072 1030 916 598 372 169 338 185 158 239 267 264 164 129 97 123 121
42 950 190 233 579 522 250 271 642 731 714 810 1072 1187 1133 1080 1054 1005 710 338 219 163 147 162 230 188 202 96 34 26 11 5
408 576 264 380 657 565 116 189 381 411 535 604 442 716 631 520 568 759 825 297 118 183 241 229 180 214 159 112 40 25 12 1
12 805 362 88 260 114 37 196 478 393 359 593 928 318 306 419 360 402 712 524 346 692 613 375 298 357 473 345 228 134 84 29
0 744 493 174 73 96 135 417 457 7 761 949 1161 1163 505 508 740 548 733 800 739 553 528 560 505 305 51 55 7 3 68 32
0 852 500 195 64 26 14 19 18 25 671 887 770 1484 1165 780 541 699 1024 1178 818 768 661 439 242 2 2 61 0 0 0 0
0 1068 584 242 16 5 24 54 42 375 469 365 1374 1820 1297 483 0 136 789 995 783 637 301 6 11 0 0 0 0 0 0 0
0 1433 645 153 0 97 286 550 696 667 893 720 1228 1953 1630 1151 1051 1267 955 850 739 321 16 0 0 0 0 0 0 0 0 0
308 1580 1435 509 465 647 660 718 999 865 1514 929 1075 1164 931 863 846 924 1048 874 505 89 9 0 0 0 0 0 0 0 0 0
1152 1321 1592 1648 1590 1189 1042 989 1036 949 1524 685 352 174 471 446 60 40 93 616 829 197 29 0 55 22 0 0 0 0 0 0
971 670 567 411 142 192 42 15 122 395 782 644 397 168 232 25 0 0 0 0 0 7 139 276 271 15 15 2 0 0 0 0
328 95 27 13 0 0 0 0 0 0 0 0 0 0 0 0 0 0 0 0 0 0 0 0 0 0 0 0 0 0 0 0
94 44 12 0 0 0 0 0 0 0 0 0 0 0 0 0 0 0 0 0 0 0 0 0 0 0 0 0 0 0 0 0
88 60 25 0 0 0 0 0 0 0 0 0 0 0 0 0 0 0 0 0 0 0 0 0 0 0 0 0 0 0 0 0
66 23 7 3 0 0 0 0 0 0 0 0 0 0 0 0 0 0 0 0 0 0 0 0 0 0 0 0 0 0 0 0
0 0 0 0 0 0 0 0 0 0 0 0 0 0 0 0 0 0 0 0 0 0 0 0 0 0 0 0 0 0 0 0
0 0 0 0 0 0 0 0 0 0 0 0 0 0 0 0 0 0 0 0 0 0 0 0 0 0 0 0 0 0 0 0
0 0 0 0 0 0 0 0 0 0 0 0 0 0 0 0 0 0 0 0 0 0 0 0 0 0 0 0 0 0 0 0
0 0 0 0 0 0 0 0 0 0 0 0 0 0 0 0 0 0 0 0 0 0 0 0 0 0 0 0 0 0 0 0
CIN
-0 -26 -121 -172 -193 -237 -196 -138 -148 -155 -150 -132 -99 -109 -110 -92 -82 -111 -190 -240 -241 -96 -157 -121 -100 -50 -144 -96 -110 -109 -138 -207
-0 -413 -310 -283 -307 -305 -303 -239 -236 -122 -100 -165 -185 -154 -175 -180 -157 -138 -216 -294 -362 -234 -297 -283 -202 -184 -199 -271 -293 -296 -244 -254
-77 -330 -488 -413 -326 -306 -279 -327 -242 -240 -142 -221 -197 -222 -226 -215 -184 -145 -181 -280 -287 -296 -299 -300 -280 -302 -261 -311 -413 -413 -465 -485
-492 -415 -388 -320 -297 -307 -426 -362 -297 -311 -226 -232 -275 -205 -192 -221 -277 -178 -151 -260 -308 -231 -237 -267 -293 -313 -320 -307 -346 -399 -465 -329
-15 -396 -434 -505 -399 -458 -461 -414 -342 -330 -308 -231 -197 -211 -237 -253 -273 -253 -154 -149 -148 -117 -134 -188 -193 -199 -183 -192 -211 -241 -296 -418
-0 -429 -413 -459 -468 -449 -407 -294 -348 -639 -226 -131 -102 -147 -189 -194 -199 -246 -187 -155 -148 -176 -182 -187 -194 -197 -335 -336 -317 -311 -240 -382
-0 -374 -409 -487 -525 -522 -288 -521 -600 -568 -225 -142 -182 -94 -101 -176 -253 -249 -182 -134 -132 -109 -148 -198 -223 -180 -71 -351 -0 -0 -0 -0
-0 -301 -359 -462 -416 -448 -600 -539 -509 -343 -261 -265 -106 -75 -124 -224 -0 -296 -182 -138 -151 -142 -236 -203 -373 -0 -0 -0 -0 -0 -0 -0
-0 -254 -343 -444 -2 -481 -436 -361 -334 -315 -207 -183 -94 -61 -118 -155 -152 -124 -160 -171 -165 -272 -291 -0 -0 -0 -0 -0 -0 -0 -0 -0
-317 -191 -188 -358 -401 -320 -320 -330 -277 -247 -142 -197 -168 -169 -202 -211 -194 -176 -138 -150 -206 -319 -341 -0 -0 -0 -0 -0 -0 -0 -0 -0
-280 -258 -232 -204 -181 -215 -263 -281 -296 -279 -176 -274 -346 -347 -245 -219 -357 -329 -360 -132 -102 -307 -380 -0 -207 -318 -0 -0 -0 -0 -0 -0
-339 -380 -414 -456 -566 -538 -561 -632 -504 -431 -283 -252 -243 -271 -260 -398 -0 -0 -0 -0 -0 -79 -261 -168 -130 -281 -219 -132 -0 -0 -0 -0
-481 -533 -572 -647 -0 -0 -0 -0 -0 -0 -0 -0 -0 -0 -0 -0 -0 -0 -0 -0 -0 -0 -0 -0 -0 -0 -0 -0 -0 -0 -0 -0
-549 -595 -639 -0 -0 -0 -0 -0 -0 -0 -0 -0 -0 -0 -0 -0 -0 -0 -0 -0 -0 -0 -0 -0 -0 -0 -0 -0 -0 -0 -0 -0
-544 -580 -629 -0 -0 -0 -0 -0 -0 -0 -0 -0 -0 -0 -0 -0 -0 -0 -0 -0 -0 -0 -0 -0 -0 -0 -0 -0 -0 -0 -0 -0
-477 -567 -636 -674 -0 -0 -0 -0 -0 -0 -0 -0 -0 -0 -0 -0 -0 -0 -0 -0 -0 -0 -0 -0 -0 -0 -0 -0 -0 -0 -0 -0
-0 -0 -0 -0 -0 -0 -0 -0 -0 -0 -0 -0 -0 -0 -0 -0 -0 -0 -0 -0 -0 -0 -0 -0 -0 -0 -0 -0 -0 -0 -0 -0
-0 -0 -0 -0 -0 -0 -0 -0 -0 -0 -0 -0 -0 -0 -0 -0 -0 -0 -0 -0 -0 -0 -0 -0 -0 -0 -0 -0 -0 -0 -0 -0
-0 -0 -0 -0 -0 -0 -0 -0 -0 -0 -0 -0 -0 -0 -0 -0 -0 -0 -0 -0 -0 -0 -0 -0 -0 -0 -0 -0 -0 -0 -0 -0
-0 -0 -0 -0 -0 -0 -0 -0 -0 -0 -0 -0 -0 -0 -0 -0 -0 -0 -0 -0 -0 -0 -0 -0 -0 -0 -0 -0 -0 -0 -0 -0
Wind_Speed
8 7 14 14 14 9 7 6 3 5 6 6 4 4 4 4 6 6 5 4 4 3 3 3 4 7 4 5 4 3 3 3
5 11 16 18 16 13 14 6 9 4 2 6 9 8 8 7 7 8 5 3 4 4 3 4 4 3 4 4 2 3 4 5
7 14 14 16 20 17 12 8 8 7 4 7 6 7 6 7 7 7 7 5 4 4 4 4 5 4 4 4 4 4 5 4
10 15 18 14 16 19 13 10 8 8 9 6 4 3 5 4 5 7 7 4 4 5 4 6 4 4 3 2 1 3 4 2
11 16 19 19 14 16 17 18 18 15 11 5 5 6 5 7 6 7 7 6 5 5 2 3 2 3 5 6 6 5 5 5
8 17 19 17 16 17 16 15 16 4 5 4 4 3 5 7 5 4 7 6 5 4 3 5 6 3 4 3 2 5 3 5
6 19 21 20 18 15 15 13 13 10 5 3 2 4 2 2 4 3 6 8 7 5 4 2 5 4 3 4 2 3 2 3
12 18 18 19 16 13 13 11 11 11 5 4 2 2 3 4 4 2 5 5 6 5 1 3 5 5 3 3 4 2 4 5
12 18 19 15 11 11 10 10 8 7 3 4 2 4 1 2 5 7 5 4 4 1 4 4 4 4 4 5 3 4 4 2
9 13 12 14 15 12 8 8 9 8 3 3 3 3 3 4 4 5 3 4 4 3 3 3 5 4 5 5 4 2 1 4
14 16 14 13 13 14 6 5 6 4 6 4 4 5 4 4 4 3 6 6 2 4 4 4 4 3 3 3 3 3 3 2
15 15 15 11 9 11 10 8 7 7 7 5 4 4 5 2 2 4 7 9 9 8 7 2 3 2 3 3 2 3 2 4
16 16 15 12 9 9 9 11 10 9 10 7 8 10 5 4 4 8 7 8 8 9 9 8 5 3 2 2 4 5 3 2
16 14 13 10 9 10 9 13 9 9 11 8 9 10 7 7 5 5 4 4 5 7 7 6 5 4 3 3 4 4 4 4
16 15 13 11 10 8 8 11 9 9 11 10 9 10 9 8 6 4 5 3 2 3 3 4 2 2 4 4 4 5 5 4
13 12 12 11 8 9 8 9 9 8 10 9 7 8 5 4 4 4 4 3 4 2 4 4 5 6 5 5 3 4 5 5
17 15 13 12 11 8 9 8 8 8 8 7 7 7 7 6 5 4 3 3 3 6 6 6 5 4 3 3 3 5 4 4
18 16 15 11 11 8 8 7 8 7 8 6 6 6 6 6 5 4 4 4 4 5 3 2 3 3 4 4 4 5 6 5
17 15 13 9 7 8 8 8 7 7 6 4 6 5 5 5 5 3 4 4 3 2 1 3 4 5 6 5 6 7 8 8
16 18 15 9 9 10 10 8 8 6 6 5 5 4 4 4 3 2 3 3 1 2 3 4 5 6 6 6 7 8 9 10
Wind_Direction
153 123 170 130 126 111 88 103 134 153 138 134 149 146 155 165 182 178 181 178 188 187 190 209 189 208 210 214 232 239 287 284
211 111 127 133 130 132 128 126 103 49 83 176 171 177 184 178 185 187 183 187 188 191 188 194 199 198 203 221 234 249 242 235
84 112 119 138 140 146 152 146 145 132 185 199 202 194 187 187 173 186 190 184 193 180 204 195 196 180 195 202 216 225 221 244
115 127 140 146 153 150 144 163 155 165 184 221 208 190 191 184 167 196 194 169 177 200 211 205 201 189 195 184 303 307 312 319
159 152 157 159 171 157 168 167 186 195 198 197 152 206 183 195 188 171 178 191 162 163 197 131 146 132 131 107 94 73 71 91
165 151 155 163 161 179 169 174 185 166 146 189 213 206 191 207 198 191 169 165 161 156 171 179 156 144 104 91 109 94 104 79
140 154 158 170 175 180 177 186 192 182 181 201 270 230 178 132 126 117 137 161 174 185 213 46 87 112 149 151 57 84 91 51
153 160 165 169 176 189 182 176 182 177 159 194 232 271 207 142 109 198 169 165 184 211 166 81 104 98 78 74 109 116 165 173
140 160 172 162 162 181 191 184 162 152 127 168 187 210 208 102 150 147 146 165 181 144 109 106 88 109 163 164 147 187 233 238
116 152 146 151 155 164 163 171 153 168 150 164 165 134 93 58 53 49 53 97 129 162 163 160 140 135 158 183 174 205 300 196
113 118 120 135 147 156 132 108 105 104 151 106 60 63 58 56 30 33 19 47 97 153 168 164 165 154 197 197 231 184 256 264
108 108 103 109 96 96 94 95 89 73 83 89 95 110 104 75 68 62 56 51 49 45 36 109 130 141 205 230 259 236 230 261
112 104 102 97 93 101 100 82 69 71 76 79 97 90 86 80 75 77 65 53 50 52 50 51 64 56 354 276 268 243 233 252
102 101 103 99 105 99 90 94 82 79 86 76 89 102 100 90 70 77 63 58 44 45 51 56 53 50 27 351 334 316 276 260
118 118 114 109 99 91 92 89 88 83 83 79 81 86 89 94 94 93 94 93 85 73 77 65 38 355 350 350 336 331 323 310
121 116 111 108 93 87 90 91 91 85 92 88 85 89 88 92 101 107 110 118 131 108 68 47 21 17 12 12 358 339 341 329
122 117 109 109 105 99 99 92 87 92 99 93 91 101 106 115 113 109 106 89 70 49 50 48 34 23 9 350 316 305 308 288
122 119 114 109 107 103 94 97 106 111 106 105 111 118 116 113 101 97 95 85 83 83 67 34 326 301 292 289 284 280 281 278
130 124 105 95 91 91 87 78 76 66 80 95 107 115 117 113 112 115 112 121 127 119 334 311 302 293 285 271 265 264 259 261
141 112 105 96 93 86 84 76 67 53 55 72 95 112 113 109 115 125 145 155 181 261 284 298 293 286 276 266 265 270 262 266